Weather History for Danbury, CT

Change the Weather History Date:

Monday, March 31, 2014

  Actual Average Record
Temperature  
Mean Temperature 40 °F -  
Max Temperature 48 °F 52 °F 84 °F (1998)
Min Temperature 33 °F 33 °F 18 °F (1964)
Degree Days  
Heating Degree Days 24    
Moisture  
Dew Point 30 °F    
Average Humidity 63    
Maximum Humidity 78    
Minimum Humidity 52    
Precipitation  
Precipitation 0.23 in - - ()
Sea Level Pressure  
Sea Level Pressure 29.87 in    
Wind  
Wind Speed 12 mph (North)    
Max Wind Speed 20 mph    
Max Gust Speed 36 mph    
Visibility 8 miles    
Events Rain , Snow    
Averages and records for this station are not official NWS values.
T = Trace of Precipitation, MM = Missing Value Source: NWS Daily Summary

Daily Weather History Graph

Daily Weather History Graph

Search for Another Location

Airport:

Trip Planner

Search our weather history database for the weather conditions in past years. The results will help you decide how hot, cold, wet, or windy it might be!

Date:

Astronomy

Mar. 31, 2014 Rise Set
Actual Time 6:38 AM EDT 7:18 PM EDT
Civil Twilight 6:10 AM EDT 7:45 PM EDT
Nautical Twilight 5:38 AM EDT 8:18 PM EDT
Astronomical Twilight 5:04 AM EDT 8:53 PM EDT
Moon 6:59 AM EDT 8:34 PM EDT
Length of Visible Light 13h 34m
Length of Day
12h 39m
New Moon, 1% of the Moon is Illuminated
Mar 31
New Moon
Apr 7
First Quarter
Apr 15
Full
Apr 22
Last Quarter
Apr 29
New

Hourly Weather History & Observations

Time (EDT) Temp. Windchill Dew Point Humidity Pressure Visibility Wind Dir Wind Speed Gust Speed Precip Events Conditions
12:53 AM 35.1 °F 26.4 °F - N/A% 29.72 in 6.0 mi North 12.7 mph - 0.00 in   Overcast
1:53 AM 35.1 °F 27.9 °F - N/A% 29.74 in 9.0 mi North 9.2 mph - 0.01 in Rain Light Rain
2:01 AM 35.1 °F 26.4 °F - N/A% 29.73 in 10.0 mi North 12.7 mph 18.4 mph 0.00 in Rain Light Rain
2:36 AM 34.0 °F 26.0 °F - N/A% 29.73 in 9.0 mi NNW 10.4 mph - 0.01 in Rain Light Rain
2:46 AM 34.0 °F 28.0 °F - N/A% 29.73 in 8.0 mi North 6.9 mph 21.9 mph 0.01 in Rain Light Rain
2:53 AM 34.0 °F 26.6 °F - N/A% 29.74 in 5.0 mi NNW 9.2 mph - 0.02 in Rain Rain
3:00 AM 34.0 °F 27.2 °F - N/A% 29.73 in 5.0 mi North 8.1 mph - 0.01 in Rain Rain
3:53 AM 34.0 °F 26.0 °F - N/A% 29.74 in 7.0 mi NNW 10.4 mph - 0.04 in Rain Light Rain
4:36 AM 34.0 °F 23.4 °F - N/A% 29.76 in 10.0 mi North 17.3 mph 23.0 mph 0.00 in Rain Light Rain
4:53 AM 33.1 °F 23.9 °F - N/A% 29.77 in 10.0 mi North 12.7 mph 21.9 mph 0.00 in   Overcast
5:53 AM 33.1 °F 23.4 °F - N/A% 29.80 in 5.0 mi North 13.8 mph - 0.03 in Rain Rain
6:42 AM 33.1 °F 22.2 °F - N/A% 29.81 in 4.0 mi NNW 17.3 mph 24.2 mph 0.06 in Rain Light Freezing Rain
6:49 AM 33.8 °F 24.3 °F - N/A% 29.81 in 4.0 mi North 13.8 mph 31.1 mph 0.06 in Snow Light Snow
6:53 AM 33.1 °F 23.9 °F - N/A% 29.83 in 4.0 mi NNW 12.7 mph 31.1 mph 0.07 in Snow Light Snow
7:53 AM 33.1 °F 23.9 °F - N/A% 29.85 in 6.0 mi NNW 12.7 mph 26.5 mph 0.04 in Rain Light Freezing Rain
8:05 AM 33.1 °F 26.1 °F - N/A% 29.85 in 2.5 mi North 8.1 mph 18.4 mph 0.01 in Rain Light Freezing Rain
8:14 AM 33.1 °F 26.1 °F - N/A% 29.85 in 3.0 mi North 8.1 mph - 0.02 in Snow Light Snow
8:53 AM 33.1 °F 24.4 °F - N/A% 29.88 in 7.0 mi North 11.5 mph 21.9 mph 0.02 in   Overcast
9:53 AM 33.1 °F 23.9 °F - N/A% 29.91 in 10.0 mi North 12.7 mph 21.9 mph 0.00 in   Overcast
10:53 AM 34.0 °F 24.6 °F - N/A% 29.92 in 10.0 mi NNW 13.8 mph 24.2 mph N/A   Overcast
11:53 AM 35.1 °F 24.8 °F 28.9 °F 78% 29.92 in 10.0 mi NNW 17.3 mph 23.0 mph N/A   Overcast
12:53 PM 37.9 °F 28.5 °F 30.0 °F 73% 29.92 in 10.0 mi North 17.3 mph 28.8 mph N/A   Overcast
1:10 PM 39.0 °F 30.6 °F 30.9 °F 73% 29.91 in 10.0 mi NNW 15.0 mph 28.8 mph N/A   Mostly Cloudy
1:53 PM 41.0 °F 32.2 °F 30.9 °F 67% 29.92 in 10.0 mi NNW 18.4 mph 33.4 mph N/A   Overcast
2:33 PM 43.0 °F 35.1 °F 33.1 °F 68% 29.90 in 10.0 mi North 17.3 mph 24.2 mph N/A   Mostly Cloudy
2:40 PM 44.1 °F 37.7 °F 33.1 °F 65% 29.90 in 10.0 mi North 12.7 mph 24.2 mph N/A   Scattered Clouds
2:53 PM 45.0 °F 37.1 °F 33.1 °F 63% 29.91 in 10.0 mi North 19.6 mph 26.5 mph N/A   Partly Cloudy
3:53 PM 48.0 °F - 33.1 °F 56% 29.91 in 10.0 mi North 12.7 mph 28.8 mph N/A   Partly Cloudy
4:53 PM 48.9 °F - 32.0 °F 52% 29.93 in 10.0 mi North 16.1 mph 35.7 mph N/A   Partly Cloudy
5:53 PM 48.0 °F - 32.0 °F 54% 29.96 in 10.0 mi North 16.1 mph 28.8 mph N/A   Clear
6:53 PM 45.0 °F 38.2 °F 30.9 °F 58% 29.99 in 10.0 mi NNW 15.0 mph 31.1 mph N/A   Clear
7:53 PM 42.1 °F 34.9 °F 28.0 °F 58% 30.02 in 10.0 mi North 13.8 mph 29.9 mph N/A   Clear
8:53 PM 39.0 °F 31.8 °F 27.0 °F 62% 30.05 in 10.0 mi North 11.5 mph - N/A   Clear
9:53 PM 36.0 °F 27.5 °F 25.0 °F 64% 30.07 in 10.0 mi North 12.7 mph 17.3 mph N/A   Clear
10:53 PM 36.0 °F 29.0 °F 24.1 °F 62% 30.07 in 10.0 mi North 9.2 mph 19.6 mph N/A   Clear
11:53 PM 37.0 °F 27.7 °F 24.1 °F 59% 30.07 in 10.0 mi North 16.1 mph 24.2 mph N/A   Clear